| time (UTC) | temp F | wind direction | speed knots | gust knots | rain 1hr in | rain 24hr in | rain mn in | humidity % | barometer mb |
| 20260502221311 | 48 | 291 | 3.5 | 6.1 | 0.00 | 0.00 | 0.00 | 38 | 1017.3 |
| 20260502220311 | 48 | 275 | 2.6 | 7.8 | 0.00 | 0.00 | 0.00 | 39 | 1017.3 |
| 20260502215311 | 48 | 291 | 2.6 | 4.3 | 0.00 | 0.00 | 0.00 | 39 | 1017.3 |
| 20260502214311 | 48 | 317 | 3.5 | 6.1 | 0.00 | 0.00 | 0.00 | 38 | 1017.3 |
| 20260502213311 | 48 | 297 | 3.5 | 7.8 | 0.00 | 0.00 | 0.00 | 39 | 1017.3 |
| 20260502212311 | 48 | 281 | 4.3 | 8.7 | 0.00 | 0.00 | 0.00 | 38 | 1017.6 |
| 20260502211311 | 48 | 267 | 4.3 | 7.8 | 0.00 | 0.00 | 0.00 | 38 | 1017.6 |
| 20260502210311 | 48 | 308 | 3.5 | 7.8 | 0.00 | 0.00 | 0.00 | 39 | 1017.3 |
| 20260502205311 | 48 | 291 | 3.5 | 6.1 | 0.00 | 0.00 | 0.00 | 39 | 1017.6 |
| 20260502204311 | 48 | 240 | 2.6 | 7.0 | 0.00 | 0.00 | 0.00 | 39 | 1017.6 |
| 20260502203311 | 48 | 252 | 3.5 | 5.2 | 0.00 | 0.00 | 0.00 | 40 | 1017.6 |
| 20260502202311 | 47 | 241 | 3.5 | 8.7 | 0.00 | 0.00 | 0.00 | 38 | 1017.6 |
| 20260502201311 | 48 | 288 | 2.6 | 4.3 | 0.00 | 0.00 | 0.00 | 38 | 1018.0 |
| 20260502200311 | 48 | 278 | 3.5 | 6.1 | 0.00 | 0.00 | 0.00 | 38 | 1018.0 |
| 20260502195311 | 48 | 292 | 4.3 | 7.8 | 0.00 | 0.00 | 0.00 | 38 | 1018.0 |
| 20260502194311 | 48 | 301 | 2.6 | 7.8 | 0.00 | 0.00 | 0.00 | 36 | 1018.3 |
| 20260502193311 | 49 | 268 | 3.5 | 7.0 | 0.00 | 0.00 | 0.00 | 38 | 1018.3 |
| 20260502192311 | 48 | 273 | 2.6 | 4.3 | 0.00 | 0.00 | 0.00 | 37 | 1018.3 |
| 20260502191311 | 48 | 234 | 3.5 | 6.1 | 0.00 | 0.00 | 0.00 | 38 | 1018.3 |
| 20260502190311 | 47 | 276 | 4.3 | 7.0 | 0.00 | 0.00 | 0.00 | 38 | 1018.7 |
| 20260502185311 | 47 | 234 | 3.5 | 7.0 | 0.00 | 0.00 | 0.00 | 39 | 1018.7 |
| 20260502184311 | 47 | 220 | 2.6 | 6.1 | 0.00 | 0.00 | 0.00 | 39 | 1018.7 |
| 20260502183311 | 47 | 251 | 2.6 | 7.0 | 0.00 | 0.00 | 0.00 | 39 | 1018.7 |
| 20260502182311 | 47 | 260 | 2.6 | 6.1 | 0.00 | 0.00 | 0.00 | 39 | 1018.7 |
| 20260502181311 | 46 | 256 | 3.5 | 11.3 | 0.00 | 0.00 | 0.00 | 40 | 1019.0 |
| 20260502180311 | 46 | 343 | 2.6 | 7.0 | 0.00 | 0.00 | 0.00 | 39 | 1019.0 |
| 20260502170311 | 46 | 319 | 3.5 | 6.1 | 0.00 | 0.00 | 0.00 | 39 | 1019.3 |
| 20260502164311 | 45 | 248 | 1.7 | 3.5 | 0.00 | 0.00 | 0.00 | 41 | 1019.3 |
| 20260502163311 | 45 | 324 | 2.6 | 5.2 | 0.00 | 0.00 | 0.00 | 41 | 1019.3 |
| 20260502162311 | 45 | 304 | 1.7 | 6.1 | 0.00 | 0.00 | 0.00 | 41 | 1019.3 |
| 20260502161311 | 45 | 290 | 2.6 | 5.2 | 0.00 | 0.00 | 0.00 | 41 | 1019.3 |
| 20260502160311 | 45 | 310 | 2.6 | 5.2 | 0.00 | 0.00 | 0.00 | 43 | 1019.0 |
| 20260502152311 | 44 | 359 | 3.5 | 7.0 | 0.00 | 0.00 | 0.00 | 45 | 1019.0 |
| 20260502150311 | 44 | 352 | 3.5 | 7.0 | 0.00 | 0.00 | 0.00 | 50 | 1019.0 |
| 20260502130311 | 42 | 40 | 1.7 | 5.2 | 0.00 | 0.00 | 0.00 | 63 | 1019.3 |
| 20260502123311 | 40 | 22 | 1.7 | 5.2 | 0.00 | 0.00 | 0.00 | 66 | 1019.0 |
| 20260502122311 | 39 | 360 | 1.7 | 5.2 | 0.00 | 0.00 | 0.00 | 68 | 1019.0 |
| 20260502121311 | 38 | 15 | 0.9 | 3.5 | 0.00 | 0.00 | 0.00 | 74 | 1019.0 |
| 20260502120311 | 37 | 335 | 0.9 | 2.6 | 0.00 | 0.00 | 0.00 | 79 | 1019.0 |
| 20260502115311 | 36 | 182 | 0.0 | 0.9 | 0.00 | 0.00 | 0.00 | 89 | 1019.0 |
| 20260502114310 | 34 | 141 | 0.0 | 0.0 | 0.00 | 0.00 | 0.00 | 94 | 1019.0 |
| 20260502113310 | 34 | 174 | 0.0 | 0.9 | 0.00 | 0.00 | 0.00 | 94 | 1018.7 |
| 20260502112310 | 33 | 162 | 0.0 | 0.9 | 0.00 | 0.00 | 0.00 | 94 | 1018.7 |
| 20260502111311 | 33 | 139 | 0.0 | 0.9 | 0.00 | 0.00 | 0.00 | 93 | 1018.7 |
| 20260502110310 | 34 | 150 | 0.0 | 0.0 | 0.00 | 0.00 | 0.00 | 93 | 1018.7 |
| 20260502105310 | 34 | 173 | 0.0 | 0.0 | 0.00 | 0.00 | 0.00 | 93 | 1018.7 |
| 20260502104310 | 34 | 175 | 0.0 | 0.9 | 0.00 | 0.00 | 0.00 | 92 | 1018.3 |
| 20260502103310 | 35 | 180 | 0.0 | 0.9 | 0.00 | 0.00 | 0.00 | 92 | 1018.3 |
| 20260502102310 | 35 | 193 | 0.9 | 1.7 | 0.00 | 0.00 | 0.00 | 92 | 1018.3 |
| 20260502101310 | 35 | 187 | 0.0 | 0.9 | 0.00 | 0.00 | 0.00 | 91 | 1018.3 |
| 20260502100310 | 35 | 205 | 0.9 | 1.7 | 0.00 | 0.00 | 0.00 | 92 | 1018.3 |
| 20260501235817 | 46 | 309 | 2.6 | 5.2 | 0.00 | 0.07 | 0.07 | 56 | 1015.9 |
| 20260501224748 | 47 | 299 | 3.5 | 4.3 | 0.74 | 0.55 | 0.63 | 54 | 1015.9 |
| 20260501223748 | 49 | 341 | 3.5 | 5.2 | 0.37 | 0.37 | 0.45 | 50 | 1015.6 |
| 20260501222748 | 49 | 341 | 3.5 | 5.2 | 0.37 | 0.37 | 0.45 | 50 | 1015.6 |